GW5216 Weather Reports


time (UTC)temp
F
wind
direction
speed
knots
gust
knots
rain 1hr
in
rain 24hr
in
rain mn
in
humidity
%
barometer
mb
20260906231646 62 247 0.0 0.0 0.00 0.00 0.00 83 1016.3
20260906231142 62 292 0.0 0.0 0.00 0.00 0.00 84 1016.4
20260906230641 62 292 0.0 0.0 0.00 0.00 0.00 83 1016.2
20260906230136 62 292 0.0 0.0 0.00 0.00 0.00 83 1016.3
20260906225636 62 292 0.0 0.0 0.00 0.00 0.00 81 1016.3
20260906225132 62 292 0.0 0.0 0.00 0.00 0.00 80 1016.3
20260906224632 62 292 0.0 0.0 0.00 0.00 0.00 80 1016.2
20260906224129 62 337 0.0 0.0 0.00 0.00 0.00 81 1016.1
20260906223625 62 337 0.0 0.0 0.00 0.00 0.00 82 1016.2
20260906223124 62 337 0.0 0.0 0.00 0.00 0.00 83 1016.0
20260906222623 62 337 0.0 0.0 0.00 0.00 0.00 83 1016.1
20260906222121 62 337 0.0 0.0 0.00 0.00 0.00 82 1016.1
20260906221620 62 337 0.0 0.0 0.00 0.00 0.00 80 1016.2
20260906221115 62 337 0.0 0.0 0.00 0.00 0.00 81 1016.3
20260906220610 62 336 0.0 0.0 0.00 0.00 0.00 81 1016.2
20260906220106 62 202 0.0 0.0 0.00 0.00 0.00 81 1016.2
20260906215604 62 202 0.0 0.0 0.00 0.00 0.00 81 1016.2
20260906215103 62 202 0.0 0.0 0.00 0.00 0.00 82 1016.2
20260906214602 62 202 0.0 0.0 0.00 0.00 0.00 84 1016.3
20260906214057 62 202 0.0 0.0 0.00 0.00 0.00 83 1016.2
20260906213556 62 202 0.0 0.0 0.00 0.00 0.00 83 1016.4
20260906213051 62 247 0.0 0.0 0.00 0.00 0.00 83 1016.4
20260906212543 62 247 0.0 0.0 0.00 0.00 0.00 83 1016.2
20260906212039 62 247 0.0 0.0 0.00 0.00 0.00 82 1016.2
20260906211538 62 247 0.0 0.0 0.00 0.00 0.00 81 1016.3
20260906211034 62 270 0.0 0.0 0.00 0.00 0.00 82 1016.3
20260906210529 62 270 0.0 0.0 0.00 0.00 0.00 83 1016.2
20260906210029 62 270 0.0 0.0 0.00 0.00 0.00 82 1016.2
20260906205525 61 270 0.0 0.0 0.00 0.00 0.00 83 1016.2
20260906205021 61 270 0.0 0.0 0.00 0.00 0.00 83 1016.3
20260906204515 61 270 0.0 0.0 0.00 0.00 0.00 82 1016.3
20260906204015 61 270 0.0 0.0 0.00 0.00 0.00 82 1016.4
20260906203509 61 270 0.0 0.0 0.00 0.00 0.00 84 1016.5
20260906203010 61 270 0.0 0.0 0.00 0.00 0.00 85 1016.4
20260906202506 61 270 0.0 0.0 0.00 0.00 0.00 86 1016.3
20260906202002 61 270 0.0 0.0 0.00 0.00 0.00 86 1016.4
20260906201456 61 270 0.0 0.0 0.00 0.00 0.00 84 1016.4
20260906200955 61 270 0.0 0.0 0.00 0.00 0.00 85 1016.3
20260906200452 60 289 0.0 0.0 0.00 0.00 0.00 85 1016.4
20260906195952 60 315 0.0 0.0 0.00 0.00 0.00 84 1016.3
20260906195448 60 315 0.0 0.0 0.00 0.00 0.00 85 1016.3
20260906194944 60 315 0.0 0.0 0.00 0.00 0.00 84 1016.4
20260906194439 60 315 0.0 0.0 0.00 0.00 0.00 82 1016.4
20260906193935 60 315 0.0 0.0 0.00 0.00 0.00 84 1016.3
20260906193430 60 315 0.0 0.0 0.00 0.00 0.00 85 1016.4
20260906192926 60 315 0.0 0.0 0.00 0.00 0.00 85 1016.4
20260906192425 60 315 0.0 0.0 0.00 0.00 0.00 84 1016.4
20260906191925 60 315 0.0 0.0 0.00 0.00 0.00 85 1016.4
20260906191420 60 238 0.0 0.0 0.00 0.00 0.00 87 1016.4
20260906190919 59 227 0.0 0.0 0.00 0.00 0.00 88 1016.4
20260906190418 59 292 0.0 0.0 0.00 0.00 0.00 90 1016.3
20260906185913 59 292 0.0 0.0 0.00 0.00 0.00 91 1016.4
20260906185412 59 292 0.0 0.0 0.00 0.00 0.00 92 1016.4
20260906184911 58 292 0.0 0.0 0.00 0.00 0.00 94 1016.4
20260906184407 58 281 0.0 0.0 0.00 0.00 0.00 97 1016.4
20260906183902 58 112 0.0 0.0 0.00 0.00 0.00 97 1016.3
20260906183358 58 112 0.0 0.0 0.00 0.00 0.00 95 1016.4
20260906182859 58 112 0.0 0.0 0.00 0.00 0.00 91 1016.4
20260906182354 58 112 0.0 0.0 0.00 0.00 0.00 90 1016.3
20260906181849 58 112 0.0 0.0 0.00 0.00 0.00 92 1016.3
20260906181345 57 112 0.0 0.0 0.00 0.00 0.00 92 1016.4
20260906180841 57 112 0.0 0.0 0.00 0.00 0.00 91 1016.4
20260906180335 57 112 0.0 0.0 0.00 0.00 0.00 92 1016.5
20260906175833 56 90 0.0 0.0 0.00 0.00 0.00 93 1016.4
20260906175328 56 90 0.0 0.0 0.00 0.00 0.00 93 1016.4
20260906174828 56 90 0.0 0.0 0.00 0.00 0.00 94 1016.3
20260906174327 55 90 0.0 0.0 0.00 0.00 0.00 95 1016.3
20260906173822 55 90 0.0 0.0 0.00 0.00 0.00 95 1016.4
20260906173318 55 90 0.0 0.0 0.00 0.00 0.00 94 1016.4
20260906172817 54 90 0.0 0.0 0.00 0.00 0.00 96 1016.5
20260906172314 54 90 0.0 0.0 0.00 0.00 0.00 97 1016.4
20260906171813 54 360 0.0 0.0 0.00 0.00 0.00 98 1016.4
20260906171309 53 360 0.0 0.0 0.00 0.00 0.00 99 1016.4
20260906170805 53 360 0.0 0.0 0.00 0.00 0.00 98 1016.4
20260906170301 52 360 0.0 0.0 0.00 0.00 0.00 99 1016.4
20260906165756 52 360 0.0 0.0 0.00 0.00 0.00 98 1016.4
20260906165255 52 360 0.0 0.0 0.00 0.00 0.00 98 1016.4
20260906164755 52 360 0.0 0.0 0.00 0.00 0.00 97 1016.3
20260906164249 52 360 0.0 0.0 0.00 0.00 0.00 99 1016.4
20260906163746 52 360 0.0 0.0 0.00 0.00 0.00 98 1016.5
20260906163242 52 360 0.0 0.0 0.00 0.00 0.00 98 1016.5
20260906162739 51 360 0.0 0.0 0.00 0.00 0.00 98 1016.5
20260906162233 51 360 0.0 0.0 0.00 0.00 0.00 99 1016.5
20260906161733 51 360 0.0 0.0 0.00 0.00 0.00 99 1016.4
20260906161232 51 360 0.0 0.0 0.00 0.00 0.00 99 1016.4
20260906160732 50 360 0.0 0.0 0.00 0.00 0.00 99 1016.4
20260906160231 50 360 0.0 0.0 0.00 0.00 0.00 99 1016.5
20260906155729 50 360 0.0 0.0 0.00 0.00 0.00 99 1016.5
20260906155224 50 360 0.0 0.0 0.00 0.00 0.00 98 1016.6
20260906154719 50 360 0.0 0.0 0.00 0.00 0.00 99 1016.5
20260906154214 49 360 0.0 0.0 0.00 0.00 0.00 99 1016.5
20260906153712 49 360 0.0 0.0 0.00 0.00 0.00 99 1016.5
20260906153207 49 360 0.0 0.0 0.00 0.00 0.00 98 1016.5
20260906152703 49 360 0.0 0.0 0.00 0.00 0.00 99 1016.5
20260906152156 49 360 0.0 0.0 0.00 0.00 0.00 99 1016.5
20260906151651 49 360 0.0 0.0 0.00 0.00 0.00 98 1016.5
20260906151147 48 360 0.0 0.0 0.00 0.00 0.00 98 1016.4
20260906150642 48 360 0.0 0.0 0.00 0.00 0.00 99 1016.4
20260906150137 48 360 0.0 0.0 0.00 0.00 0.00 98 1016.5
20260906145636 49 360 0.0 0.0 0.00 0.00 0.00 98 1016.4
20260906145131 49 360 0.0 0.0 0.00 0.00 0.00 99 1016.4
20260906144631 49 360 0.0 0.0 0.00 0.00 0.00 99 1016.5
20260906144126 50 360 0.0 0.0 0.00 0.00 0.00 99 1016.5
20260906143626 50 360 0.0 0.0 0.00 0.00 0.00 99 1016.5
20260906143124 50 45 0.0 0.0 0.00 0.00 0.00 99 1016.5
20260906142622 50 45 0.0 0.0 0.00 0.00 0.00 99 1016.4
20260906142117 49 45 0.0 0.0 0.00 0.00 0.00 99 1016.4
20260906141616 49 45 0.0 0.0 0.00 0.00 0.00 98 1016.4
20260906141112 49 45 0.0 0.0 0.00 0.00 0.00 99 1016.3
20260906140611 49 45 0.0 0.0 0.00 0.00 0.00 99 1016.3
20260906140106 49 45 0.0 0.0 0.00 0.00 0.00 98 1016.3
20260906135603 49 45 0.0 0.0 0.00 0.00 0.00 99 1016.2
20260906135059 49 45 0.0 0.0 0.00 0.00 0.00 98 1016.2
20260906134554 49 45 0.0 0.0 0.00 0.00 0.00 99 1016.1
20260906134049 48 67 0.0 0.0 0.00 0.00 0.00 98 1016.3
20260906133544 48 67 0.0 0.0 0.00 0.00 0.00 98 1016.0
20260906133040 48 67 0.0 0.0 0.00 0.00 0.00 99 1016.0
20260906132535 48 67 0.0 0.0 0.00 0.00 0.00 97 1015.9
20260906132030 48 67 0.0 0.0 0.00 0.00 0.00 98 1015.9
20260906131531 48 67 0.0 0.0 0.00 0.00 0.00 97 1015.9
20260906131026 49 67 0.0 0.0 0.00 0.00 0.00 97 1015.9
20260906130525 49 67 0.0 0.0 0.00 0.00 0.00 97 1015.9
20260906130021 49 67 0.0 0.0 0.00 0.00 0.00 99 1015.8
20260906125518 50 67 0.0 0.0 0.00 0.00 0.00 99 1015.7
20260906125013 50 67 0.0 0.0 0.00 0.00 0.00 98 1015.8
20260906124508 51 67 0.0 0.0 0.00 0.00 0.00 98 1015.7
20260906124004 51 67 0.0 0.0 0.00 0.00 0.00 97 1015.8
20260906123502 51 67 0.0 0.0 0.00 0.00 0.00 97 1015.9
20260906123002 52 67 0.0 0.0 0.00 0.00 0.00 98 1015.8
20260906122457 52 67 0.0 0.0 0.00 0.00 0.00 97 1015.8
20260906121953 52 67 0.0 0.0 0.00 0.00 0.00 96 1015.8
20260906121449 52 67 0.0 0.0 0.00 0.00 0.00 96 1015.7
20260906120946 52 67 0.0 0.0 0.00 0.00 0.00 97 1015.8
20260906120441 52 67 0.0 0.0 0.00 0.00 0.00 97 1015.9
20260906115937 51 22 0.0 0.0 0.00 0.00 0.00 97 1015.8
20260906115432 52 360 0.0 0.0 0.00 0.00 0.00 98 1015.9
20260906114933 51 360 0.0 0.0 0.00 0.00 0.00 98 1015.9
20260906114432 51 360 0.0 0.0 0.00 0.00 0.00 98 1015.9
20260906113929 51 45 0.0 0.0 0.00 0.00 0.00 99 1015.9
20260906113427 51 45 0.0 0.0 0.00 0.00 0.00 98 1015.9
20260906112923 51 45 0.0 0.0 0.00 0.00 0.00 99 1016.0
20260906112418 51 315 0.0 0.0 0.00 0.00 0.00 99 1016.0
20260906111914 51 315 0.0 0.0 0.00 0.00 0.00 99 1016.0
20260906111413 51 315 0.0 0.0 0.00 0.00 0.00 99 1015.9
20260906110908 51 315 0.0 0.0 0.00 0.00 0.00 98 1016.0
20260906110403 51 315 0.0 0.0 0.00 0.00 0.00 99 1016.0
20260906105903 51 315 0.0 0.0 0.00 0.00 0.00 98 1016.1
20260906105358 50 315 0.0 0.0 0.00 0.00 0.00 98 1016.0
20260906104854 50 315 0.0 0.0 0.00 0.00 0.00 97 1015.9
20260906104353 50 315 0.0 0.0 0.00 0.00 0.00 97 1016.1
20260906103851 51 315 0.0 0.0 0.00 0.00 0.00 97 1016.1
20260906103350 51 315 0.0 0.0 0.00 0.00 0.00 98 1016.1
20260906102846 51 315 0.0 0.0 0.00 0.00 0.00 98 1016.1
20260906102344 52 315 0.0 0.0 0.00 0.00 0.00 99 1016.1
20260906101840 52 315 0.0 0.0 0.00 0.00 0.00 98 1016.1
20260906101335 51 315 0.0 0.0 0.00 0.00 0.00 98 1016.2
20260906100831 52 247 0.0 0.0 0.00 0.00 0.00 96 1016.1
20260906100329 52 247 0.0 0.0 0.00 0.00 0.00 98 1016.1
20260906095825 52 247 0.0 0.0 0.00 0.00 0.00 97 1016.1
20260906095321 52 247 0.0 0.0 0.00 0.00 0.00 98 1016.1
20260906094820 53 247 0.0 0.0 0.00 0.00 0.00 97 1016.1
20260906094315 53 247 0.0 0.0 0.00 0.00 0.00 97 1016.2
20260906093811 53 247 0.0 0.0 0.00 0.00 0.00 98 1016.2
20260906093307 53 247 0.0 0.0 0.00 0.00 0.00 97 1016.1
20260906092802 53 247 0.0 0.0 0.00 0.00 0.00 97 1016.1
20260906092305 53 247 0.0 0.0 0.00 0.00 0.00 98 1016.2
20260906091757 53 247 0.0 0.0 0.00 0.00 0.00 97 1016.1
20260906091253 53 247 0.0 0.0 0.00 0.00 0.00 97 1016.2
20260906090750 53 247 0.0 0.0 0.00 0.00 0.00 97 1016.2
20260906090249 53 247 0.0 0.0 0.00 0.00 0.00 95 1016.3
20260906085748 53 247 0.0 0.0 0.00 0.00 0.00 96 1016.4
20260906085247 53 247 0.0 0.0 0.00 0.00 0.00 97 1016.3
20260906084743 54 360 0.0 0.0 0.00 0.00 0.00 97 1016.3
20260906084242 54 360 0.0 0.0 0.00 0.00 0.00 97 1016.3
20260906083737 53 360 0.0 0.0 0.00 0.00 0.00 96 1016.3
20260906083232 53 360 0.0 0.0 0.00 0.00 0.00 97 1016.1
20260906082727 53 360 0.0 0.0 0.00 0.00 0.00 97 1016.2
20260906082222 53 360 0.0 0.0 0.00 0.00 0.00 98 1016.2
20260906081719 53 360 0.0 0.0 0.00 0.00 0.00 98 1016.2
20260906081213 53 360 0.0 0.0 0.00 0.00 0.00 97 1016.2
20260906080710 52 360 0.0 0.0 0.00 0.00 0.00 98 1016.2
20260906080206 52 360 0.0 0.0 0.00 0.00 0.00 97 1016.2
20260906075706 52 360 0.0 0.0 0.00 0.00 0.00 96 1016.3
20260906075200 52 360 0.0 0.0 0.00 0.00 0.00 94 1016.2
20260906074655 52 360 0.0 0.0 0.00 0.00 0.00 92 1016.2
20260906074154 53 360 0.0 0.0 0.00 0.00 0.00 93 1016.3
20260906073650 53 360 0.0 0.0 0.00 0.00 0.00 93 1016.2
20260906073145 54 360 0.0 0.0 0.00 0.00 0.00 93 1016.2
20260906072640 54 360 0.0 0.0 0.00 0.00 0.00 93 1016.0
20260906072136 54 360 0.0 0.0 0.00 0.00 0.00 93 1016.1
20260906071632 54 360 0.0 0.0 0.00 0.00 0.00 93 1016.2
20260906071132 54 360 0.0 0.0 0.00 0.00 0.00 93 1016.2
20260906070629 54 360 0.0 0.0 0.00 0.00 0.00 93 1016.2
20260906070124 54 360 0.0 0.0 0.00 0.00 0.00 92 1016.2
20260906065624 54 360 0.0 0.0 0.00 0.00 0.00 93 1016.2
20260906065119 54 360 0.0 0.0 0.00 0.00 0.00 92 1016.2
20260906064614 55 360 0.0 0.0 0.00 0.00 0.00 93 1016.2
20260906064109 55 360 0.0 0.0 0.00 0.00 0.00 92 1016.2
20260906063605 55 360 0.0 0.0 0.00 0.00 0.00 93 1016.1
20260906063101 55 360 0.0 0.0 0.00 0.00 0.00 93 1016.1
20260906062556 55 360 0.0 0.0 0.00 0.00 0.00 91 1016.1
20260906062055 55 360 0.0 0.0 0.00 0.00 0.00 91 1016.1
20260906061552 55 360 0.0 0.0 0.00 0.00 0.00 91 1016.1
20260906061050 55 360 0.0 0.0 0.00 0.00 0.00 90 1015.9
20260906060547 55 360 0.0 0.0 0.00 0.00 0.00 91 1015.9
20260906060044 55 315 0.0 0.0 0.00 0.00 0.00 91 1016.0
20260906055540 55 315 0.0 0.0 0.00 0.00 0.00 91 1016.0
20260906055035 55 315 0.0 0.0 0.00 0.00 0.00 91 1015.9
20260906054535 55 22 0.0 0.0 0.00 0.00 0.00 91 1015.9
20260906054030 56 22 0.0 0.0 0.00 0.00 0.00 91 1015.9
20260906053527 56 22 0.0 0.0 0.00 0.00 0.00 90 1016.0
20260906053022 56 22 0.0 0.0 0.00 0.00 0.00 90 1016.0
20260906052518 56 22 0.0 0.0 0.00 0.00 0.00 89 1016.0
20260906052015 56 22 0.0 0.0 0.00 0.00 0.00 89 1015.9
20260906051510 56 22 0.0 0.0 0.00 0.00 0.00 89 1016.0
20260906051005 56 22 0.0 0.0 0.00 0.00 0.00 89 1016.1
20260906050500 56 22 0.0 0.0 0.00 0.00 0.00 89 1016.0
20260906045959 56 22 0.0 0.0 0.00 0.00 0.00 88 1016.0
20260906045458 56 22 0.0 0.0 0.00 0.00 0.00 88 1016.0
20260906044954 56 22 0.0 0.0 0.00 0.00 0.00 88 1016.1
20260906044449 56 22 0.0 0.0 0.00 0.00 0.00 89 1016.1
20260906043945 56 22 0.0 0.0 0.00 0.00 0.00 89 1016.2
20260906043441 57 22 0.0 0.0 0.00 0.00 0.00 87 1016.0
20260906042936 57 22 0.0 0.0 0.00 0.00 0.00 86 1016.0
20260906042435 57 22 0.0 0.0 0.00 0.00 0.00 85 1016.0
20260906041930 57 22 0.0 0.0 0.00 0.00 0.00 84 1016.1
20260906041426 57 22 0.0 0.0 0.00 0.00 0.00 85 1016.1
20260906040920 57 360 0.0 0.0 0.00 0.00 0.00 84 1016.1
20260906040415 58 360 0.0 0.0 0.00 0.00 0.00 84 1016.1
20260906035911 58 360 0.0 0.0 0.00 0.00 0.00 82 1016.0
20260906035406 58 360 0.0 0.0 0.00 0.00 0.00 80 1016.1
20260906034901 59 360 0.0 0.0 0.00 0.00 0.00 80 1016.0
20260906034355 59 360 0.0 0.0 0.00 0.00 0.00 78 1016.0
20260906033851 60 270 0.0 0.0 0.00 0.00 0.00 79 1016.0
20260906033351 60 270 0.0 0.0 0.00 0.00 0.00 78 1015.9
20260906032847 61 270 0.0 0.0 0.00 0.00 0.00 75 1015.9
20260906032343 61 319 0.0 0.0 0.00 0.00 0.00 74 1016.0
20260906031839 62 315 0.0 0.0 0.00 0.00 0.00 72 1016.1
20260906031334 63 315 0.0 0.0 0.00 0.00 0.00 71 1016.1
20260906030833 63 292 0.0 0.0 0.00 0.00 0.00 69 1016.0
20260906030329 64 247 0.0 0.0 0.00 0.00 0.00 67 1016.1
20260906025829 64 297 0.9 1.7 0.00 0.00 0.00 66 1016.1
20260906025322 64 135 0.0 0.0 0.00 0.00 0.00 67 1016.0
20260906024821 65 202 0.0 0.9 0.00 0.00 0.00 66 1016.0
20260906024321 65 283 0.0 0.0 0.00 0.00 0.00 66 1016.1
20260906023817 65 65 0.0 0.9 0.00 0.00 0.00 66 1016.0
20260906023312 65 225 0.0 0.0 0.00 0.00 0.00 65 1016.0
20260906022808 66 315 0.0 1.7 0.00 0.00 0.00 65 1016.1
20260906022306 66 67 0.0 0.0 0.00 0.00 0.00 64 1016.1
20260906021758 66 247 0.0 0.0 0.00 0.00 0.00 64 1016.1
20260906021257 66 120 0.0 1.7 0.00 0.00 0.00 63 1016.2
20260906020752 66 95 0.0 1.7 0.00 0.00 0.00 62 1016.2
20260906020252 67 146 0.0 0.9 0.00 0.00 0.00 63 1016.2
20260906015752 67 10 0.0 1.7 0.00 0.00 0.00 62 1015.9
20260906015250 68 157 1.7 5.2 0.00 0.00 0.00 61 1016.2
20260906014746 68 303 0.9 2.6 0.00 0.00 0.00 61 1016.1
20260906014241 68 232 0.9 2.6 0.00 0.00 0.00 59 1015.9
20260906013737 69 210 0.0 2.6 0.00 0.00 0.00 58 1016.0
20260906013237 69 171 0.9 2.6 0.00 0.00 0.00 58 1016.1
20260906012732 70 154 0.0 2.6 0.00 0.00 0.00 57 1016.2
20260906012227 70 279 0.0 0.9 0.00 0.00 0.00 56 1016.1
20260906011723 70 81 0.0 0.9 0.00 0.00 0.00 56 1016.2
20260906011217 70 305 0.9 1.7 0.00 0.00 0.00 53 1016.2
20260906010713 70 275 0.0 2.6 0.00 0.00 0.00 53 1016.1
20260906010209 71 274 0.9 1.7 0.00 0.00 0.00 52 1016.1
20260906005709 71 180 0.9 3.5 0.00 0.00 0.00 52 1016.0
20260906005208 71 325 0.0 1.7 0.00 0.00 0.00 51 1016.1
20260906004707 71 326 0.9 1.7 0.00 0.00 0.00 49 1016.0
20260906004202 72 114 0.0 0.9 0.00 0.00 0.00 49 1016.1
20260906003657 72 337 0.0 0.9 0.00 0.00 0.00 50 1016.2
20260906003153 71 355 0.0 1.7 0.00 0.00 0.00 50 1016.1
20260906002653 71 157 0.0 0.0 0.00 0.00 0.00 50 1016.1
20260906002148 71 22 0.0 0.0 0.00 0.00 0.00 50 1016.2
20260906001643 71 67 0.0 0.0 0.00 0.00 0.00 49 1016.1
20260906001143 71 92 0.0 2.6 0.00 0.00 0.00 48 1016.2
20260906000639 71 329 0.0 0.0 0.00 0.00 0.00 48 1016.3
20260906000134 70 325 0.0 0.9 0.00 0.00 0.00 48 1016.2
20260905235633 71 127 0.0 0.9 0.00 0.00 0.00 47 1016.4
20260905235129 71 22 0.0 0.0 0.00 0.00 0.00 45 1016.2
20260905234624 71 131 0.0 0.0 0.00 0.00 0.00 45 1016.4
20260905234120 71 243 0.9 2.6 0.00 0.00 0.00 45 1016.5
20260905233619 71 136 0.0 2.6 0.00 0.00 0.00 45 1016.5
20260905233114 71 199 0.9 2.6 0.00 0.00 0.00 45 1016.3
20260905232609 71 135 0.0 1.7 0.00 0.00 0.00 47 1016.4
20260905232105 70 48 0.0 0.0 0.00 0.00 0.00 47 1016.5